TimeAST,TemperatureF,Dew PointF,Humidity,Sea Level PressureIn,VisibilityMPH,Wind Direction,Wind SpeedMPH,Gust SpeedMPH,PrecipitationIn,Events,Conditions,WindDirDegrees,DateUTC
12:00 AM,80.6,73.4,79,29.95,6.2,East,6.9,-,N/A,,Scattered Clouds,80,2011-10-20 04:00:00
1:00 AM,80.6,73.4,79,29.95,6.2,ENE,5.8,-,N/A,,Scattered Clouds,60,2011-10-20 05:00:00
2:00 AM,81,74,72,29.95,12,ENE,3.5,,,,Partly Cloudy,60,2011-10-20 06:00:00
2:00 AM,80.6,73.4,79,29.95,6.2,ENE,3.5,-,N/A,,Mostly Cloudy,60,2011-10-20 06:00:00
3:00 AM,78.8,75.2,89,29.92,6.2,ENE,5.8,-,N/A,,Scattered Clouds,70,2011-10-20 07:00:00
4:00 AM,80.6,73.4,79,29.92,6.2,East,6.9,-,N/A,,Scattered Clouds,80,2011-10-20 08:00:00
5:00 AM,79,74,79,29.94,19,East,5.8,,,,Partly Cloudy,80,2011-10-20 09:00:00
5:00 AM,78.8,73.4,83,29.92,6.2,East,5.8,-,N/A,,Scattered Clouds,80,2011-10-20 09:00:00
6:00 AM,80.6,73.4,79,29.92,6.2,ENE,8.1,-,N/A,,Scattered Clouds,60,2011-10-20 10:00:00
7:00 AM,80.6,73.4,79,29.95,6.2,ENE,9.2,-,N/A,,Partly Cloudy,60,2011-10-20 11:00:00
8:00 AM,82.4,73.4,74,29.95,6.2,ENE,13.8,-,N/A,,Scattered Clouds,60,2011-10-20 12:00:00
9:00 AM,84.2,73.4,70,29.95,6.2,ENE,13.8,-,N/A,,Scattered Clouds,60,2011-10-20 13:00:00
10:00 AM,86.0,73.4,66,29.95,6.2,ENE,12.7,-,N/A,,Partly Cloudy,70,2011-10-20 14:00:00
11:00 AM,86.0,73.4,66,29.92,6.2,East,11.5,-,N/A,,Unknown,90,2011-10-20 15:00:00
12:00 PM,86.0,73.4,66,29.89,6.2,East,15.0,-,N/A,,Partly Cloudy,100,2011-10-20 16:00:00
1:00 PM,86.0,73.4,66,29.89,6.2,East,12.7,-,N/A,,Scattered Clouds,100,2011-10-20 17:00:00
2:00 PM,87,71,49,29.87,31,East,13.8,,,,Scattered Clouds,90,2011-10-20 18:00:00
2:00 PM,86.0,71.6,62,29.86,6.2,East,13.8,-,N/A,,Partly Cloudy,90,2011-10-20 18:00:00
3:00 PM,86.0,71.6,62,29.83,6.2,East,10.4,-,N/A,,Partly Cloudy,90,2011-10-20 19:00:00
4:00 PM,86.0,71.6,62,29.83,6.2,East,12.7,-,N/A,,Partly Cloudy,90,2011-10-20 20:00:00
5:00 PM,84,73,63,29.86,28,ENE,11.5,,,Rain,Light Rain Showers,60,2011-10-20 21:00:00
5:00 PM,84.2,73.4,70,29.86,6.2,ENE,11.5,-,N/A,Rain,Light Rain Showers,60,2011-10-20 21:00:00
6:00 PM,82.4,71.6,70,29.86,6.2,ENE,11.5,-,N/A,,Partly Cloudy,60,2011-10-20 22:00:00
7:00 PM,82.4,71.6,70,29.86,6.2,ENE,11.5,-,N/A,,Partly Cloudy,70,2011-10-20 23:00:00
8:00 PM,83,72,62,29.88,28,ENE,12.7,,,,Partly Cloudy,60,2011-10-21 00:00:00
8:00 PM,84.2,71.6,66,29.86,6.2,ENE,12.7,-,N/A,,Partly Cloudy,60,2011-10-21 00:00:00
9:00 PM,82.4,71.6,70,29.86,6.2,ENE,11.5,-,N/A,,Partly Cloudy,60,2011-10-21 01:00:00
10:00 PM,80.6,73.4,79,29.86,6.2,ENE,15.0,-,N/A,,Scattered Clouds,70,2011-10-21 02:00:00
11:00 PM,80.6,73.4,79,29.86,6.2,ENE,12.7,-,N/A,,Partly Cloudy,60,2011-10-21 03:00:00